Theta_e
321 321 320 321 321 321 321 321 318 312 313 318 317 319 321 320 321 322 321 319 321 322 324 325 324 324 325 327 328 329 328 328 328 329 329 327 326 326
310 310 309 309 309 309 310 314 319 317 313 318 317 316 317 317 318 319 320 314 317 321 321 320 319 320 321 322 324 324 324 325 326 328 328 326 324 322
305 304 304 305 304 304 305 305 305 306 305 311 314 315 314 314 315 316 317 318 319 316 319 318 318 317 318 318 320 321 321 322 324 326 327 325 324 322
300 301 298 299 299 299 300 300 301 303 302 302 305 307 309 312 312 312 314 315 317 316 317 316 316 316 316 317 317 317 318 319 320 321 323 323 322 321
297 296 295 296 296 296 298 297 297 297 298 297 297 301 303 306 305 307 307 307 309 309 312 313 315 315 315 315 315 315 315 315 316 316 317 318 319 319
294 294 294 294 294 295 294 293 294 294 295 294 294 295 297 299 301 298 298 302 304 306 307 309 311 311 313 314 314 312 311 312 314 315 314 313 313 314
292 292 292 293 294 293 291 290 290 290 290 289 289 290 291 291 291 294 293 294 296 300 303 304 305 306 308 310 309 309 309 311 312 313 313 312 310 310
288 289 290 291 290 291 291 291 290 288 287 287 287 285 285 286 288 288 288 287 286 295 293 294 299 300 304 306 308 309 309 310 310 310 311 311 309 308
287 287 287 289 289 288 289 290 289 290 290 286 283 284 284 286 286 285 285 285 286 290 292 290 293 293 299 303 307 307 308 308 308 308 308 308 308 307
287 286 286 285 287 288 286 286 285 286 286 287 285 285 286 287 287 286 286 286 287 288 291 286 291 291 295 299 304 306 306 307 307 307 307 307 306 306
286 286 286 285 291 291 286 284 284 285 289 290 290 290 290 290 289 287 283 283 282 284 287 287 288 290 292 293 297 303 304 305 306 307 307 306 306 305
285 286 289 288 290 291 286 284 282 283 284 283 283 284 286 285 289 284 283 281 281 281 283 285 286 286 285 291 293 296 297 302 303 305 306 306 305 304
283 283 284 289 290 290 289 283 284 285 283 281 281 282 282 282 282 283 281 282 280 282 286 287 286 285 284 284 287 288 293 295 297 300 303 304 305 304
282 283 284 289 288 288 286 288 288 285 281 280 279 279 280 280 281 281 282 284 285 284 286 286 284 285 284 284 284 288 289 291 294 295 297 302 304 304
284 286 289 288 287 285 286 286 286 281 280 279 279 279 279 280 281 281 282 283 284 284 286 286 286 286 286 285 285 286 288 289 291 293 295 297 298 300
286 284 287 287 286 285 283 282 281 281 279 278 278 279 280 275 279 280 279 280 281 282 284 286 286 286 285 285 286 285 288 286 288 291 293 294 296 296
287 283 280 279 279 279 279 280 280 280 278 277 278 278 279 280 279 279 280 280 279 280 281 284 286 286 286 285 283 284 285 287 289 289 288 287 287 289
281 278 278 278 278 279 279 279 279 280 279 277 277 276 278 277 278 279 279 279 278 279 280 282 284 284 281 282 287 283 285 286 287 286 286 285 283 284
278 277 278 278 278 278 277 277 278 279 279 276 276 277 277 278 278 277 277 278 278 279 280 283 284 282 279 277 276 287 283 285 284 284 285 284 283 283
278 278 277 278 278 276 275 276 277 278 279 277 277 274 276 277 276 276 277 277 278 279 280 282 283 282 280 279 280 277 286 284 284 282 282 283 284 288
277 277 277 277 277 277 276 276 276 278 279 276 270 275 277 277 275 276 276 280 280 279 278 280 283 288 285 283 279 277 282 286 285 283 283 281 280 281
277 277 277 277 278 276 274 275 275 275 276 276 277 276 276 276 275 275 276 277 277 279 281 283 283 284 282 281 278 278 281 283 286 287 286 283 280 277
277 277 276 276 276 274 273 275 275 276 276 276 276 275 275 274 275 276 276 277 279 280 282 275 275 280 280 279 278 277 280 280 281 281 282 287 286 286
Wind_Speed
4 1 0 3 2 3 6 8 10 14 14 9 8 8 7 4 7 6 7 12 15 15 17 18 16 15 17 18 18 18 16 14 15 16 16 17 19 19
8 10 6 5 7 7 7 7 7 10 15 7 6 2 2 2 4 7 8 9 14 20 21 19 18 19 18 17 17 18 17 17 17 20 21 21 21 19
9 9 9 8 7 7 6 6 6 5 4 4 3 4 5 5 5 5 8 9 9 15 19 18 19 18 18 18 20 19 17 17 19 22 22 22 22 21
11 8 10 7 9 9 6 7 7 8 5 5 4 5 4 7 4 6 4 5 7 9 12 14 17 19 19 20 21 21 20 20 19 22 23 22 21 21
8 10 9 7 8 3 6 7 5 6 6 5 5 5 4 7 7 4 4 5 4 8 12 11 13 16 17 17 19 19 19 20 22 22 21 20 20 21
9 9 7 8 7 7 8 8 7 6 5 4 5 5 5 7 5 8 9 6 8 5 7 10 12 13 15 16 18 17 18 19 22 23 22 21 20 19
6 7 8 10 12 13 7 6 7 6 5 5 5 5 5 7 7 7 8 9 8 9 7 5 5 5 6 10 14 15 17 19 22 23 23 23 21 20
6 7 5 7 10 13 13 13 10 6 5 4 3 4 5 5 6 6 7 7 7 3 8 11 9 10 8 7 11 13 15 21 23 23 23 24 23 23
4 3 3 3 6 5 9 10 9 11 9 4 4 4 6 8 7 8 8 7 9 9 11 12 8 11 10 9 17 18 18 19 22 23 24 24 24 25
6 3 3 3 4 5 2 4 4 5 5 4 4 5 5 7 6 7 9 9 8 7 8 12 7 10 10 9 16 20 22 22 23 23 24 25 26 26
6 5 3 3 10 13 5 5 4 5 7 11 13 15 15 17 14 7 6 9 11 10 5 9 8 10 9 9 10 18 22 24 24 25 26 27 27 27
5 5 12 11 14 13 5 4 6 7 5 6 7 9 9 9 14 5 6 9 10 9 4 8 9 8 10 5 7 7 9 19 25 28 28 26 27 14
3 3 4 15 16 15 13 4 5 5 8 6 7 7 6 5 5 6 4 8 9 9 10 10 9 11 10 11 8 6 8 10 11 14 24 28 28 23
4 4 5 13 12 12 9 13 13 10 4 4 5 6 6 6 8 7 9 9 8 12 12 13 9 10 11 13 14 8 5 8 9 10 10 14 24 29
4 9 15 12 10 7 11 13 12 4 4 4 6 6 4 6 8 9 10 12 13 12 10 12 10 12 10 12 12 11 11 7 9 11 9 11 11 9
10 7 9 10 9 8 6 5 3 3 3 4 6 7 5 4 6 6 8 9 11 12 8 10 10 11 11 10 10 13 9 10 5 9 10 11 10 9
9 3 3 3 4 4 4 4 4 4 3 3 5 7 9 9 8 8 8 9 11 12 13 10 8 9 10 13 13 12 11 10 8 6 5 4 0 6
2 2 3 4 4 4 5 6 5 7 5 4 6 5 8 8 9 8 8 10 11 11 11 12 11 9 6 7 18 10 9 9 7 5 3 4 3 2
2 3 4 4 5 3 5 6 8 8 7 5 5 6 7 9 13 11 10 10 11 11 11 11 9 9 10 11 3 11 8 6 3 4 3 2 4 4
3 4 4 5 4 3 4 6 7 8 8 5 5 5 8 9 10 10 10 11 11 11 11 10 8 8 8 8 6 3 7 3 2 2 3 6 7 14
5 5 5 5 6 4 5 6 7 8 7 7 4 7 8 9 10 10 11 20 20 11 12 10 8 16 5 2 2 3 3 7 4 4 5 7 4 2
6 6 6 5 7 4 5 7 6 7 8 7 8 7 9 9 10 12 11 12 12 11 12 8 8 5 2 3 1 0 2 5 12 16 13 7 3 4
6 6 6 7 6 5 6 6 6 7 8 8 8 8 9 10 11 11 12 12 12 11 9 4 3 2 1 1 2 2 5 5 3 7 6 12 13 17
Wind_Direction
126 70 338 297 291 248 247 242 252 270 264 250 244 223 224 206 227 228 233 230 224 231 244 243 240 243 242 240 235 230 232 233 228 219 204 199 202 212
40 52 37 27 42 35 15 355 286 261 270 271 242 284 252 244 233 230 237 244 232 231 232 231 234 237 238 239 235 228 227 230 232 216 202 202 208 219
50 57 54 49 33 21 18 21 9 355 335 3 10 4 346 306 284 259 254 251 248 237 243 241 242 241 237 236 238 231 225 228 227 216 207 211 214 222
53 57 48 35 60 23 12 25 8 16 332 349 335 344 350 332 342 322 307 297 283 274 262 255 255 250 240 237 231 229 226 223 222 223 213 214 219 226
56 58 43 41 42 26 30 39 360 16 17 350 332 348 341 352 344 319 313 295 283 293 297 295 281 269 259 249 243 238 231 230 224 215 212 213 215 219
52 46 33 39 38 33 50 26 0 4 2 1 335 333 332 347 342 334 334 330 326 305 269 262 271 271 272 269 258 246 239 230 223 218 214 211 212 214
63 63 57 53 40 43 38 16 6 4 358 351 337 338 333 347 347 341 328 321 321 303 314 308 284 280 272 269 268 256 239 229 228 226 220 215 208 206
58 49 48 64 49 45 37 28 13 355 360 358 348 349 332 329 326 325 320 324 319 325 339 312 311 303 291 274 264 259 255 238 232 228 224 217 209 207
60 91 70 56 45 45 25 14 359 356 360 342 324 315 320 318 313 313 310 298 289 298 300 292 297 289 285 272 263 258 256 248 239 234 227 221 214 207
24 62 99 58 5 21 21 345 329 314 309 318 296 284 290 306 301 297 295 289 291 288 274 281 290 285 288 286 271 263 255 247 245 241 236 229 222 214
8 6 26 30 353 348 343 324 315 307 317 329 333 332 328 329 329 328 322 321 306 303 284 285 289 284 283 283 280 270 264 266 258 250 245 236 225 217
358 6 10 356 348 343 344 349 338 319 324 341 330 325 318 308 324 319 305 306 302 305 284 309 302 310 295 282 268 281 281 270 263 257 251 244 231 216
360 346 335 348 348 347 349 336 299 349 343 326 318 315 308 294 306 300 288 303 294 284 285 298 294 293 273 282 267 257 254 267 273 270 259 249 237 211
346 328 311 333 337 346 346 337 342 353 327 317 309 306 300 314 308 297 279 275 257 260 277 277 276 275 275 281 284 266 240 257 253 254 254 250 244 216
317 308 317 318 324 337 333 343 349 334 310 297 305 295 271 285 289 290 290 293 279 273 271 265 262 275 270 276 281 276 267 247 247 252 248 246 232 214
302 302 291 308 314 311 325 311 293 281 290 280 289 290 282 283 284 276 289 301 296 297 277 262 262 259 272 269 273 274 263 264 248 242 245 247 229 197
325 340 342 320 304 288 275 271 272 265 271 261 300 309 318 317 311 308 298 306 302 302 305 302 273 254 258 270 273 272 273 262 246 243 214 203 226 164
5 315 294 280 275 289 314 315 302 308 294 294 312 302 308 310 306 304 306 300 298 295 298 298 301 292 274 250 236 265 266 258 243 227 224 199 154 154
300 283 277 289 303 301 318 319 315 308 302 292 292 297 306 306 314 308 302 295 293 294 292 292 289 289 288 283 270 227 262 258 211 196 191 161 140 138
307 307 311 314 305 286 307 312 310 309 303 285 293 299 306 299 304 303 299 297 295 294 292 293 288 276 269 274 288 266 314 261 188 117 110 87 91 111
313 309 305 307 308 299 310 303 297 304 322 312 277 298 301 303 299 298 295 299 302 297 295 291 290 295 277 260 275 325 335 66 72 123 120 107 106 86
306 303 305 302 304 300 290 290 297 308 303 304 303 299 310 300 296 295 293 294 293 288 289 291 299 298 247 261 242 19 69 64 74 81 75 83 137 135
308 309 308 297 283 282 275 277 280 293 295 296 297 304 302 295 291 289 289 288 286 289 295 293 293 303 283 226 162 40 103 90 75 76 58 75 91 93